Location: Sulphur Springs (historical)
(38.1246°N, 122.1900°W)
Time: 05:45:13
(UTC+00:00)

Cosmos 2082 Rocket - Pass Details

Date: 29 October 2020
Orbit: 833 x 854 km, 71.0° (Epoch: 27 November)

Event Time Altitude Azimuth Distance (km) Brightness Sun altitude
Exits shadow 12:09:42 52° 168° (SSE) 1,021 2.5 -28.5°
Maximum altitude 12:10:55 69° 109° (ESE) 892 2.4 -28.3°
Drops below altitude 10° 12:16:29 10° 27° (NNE) 2,450 4.9 -27.2°
Sets 12:18:57 0° 26° (NNE) 3,389 5.7 -26.7°
